[[{"header":{"parameterUnit":"m.s-1","parameterCategory":1,"la1":30.2991,"la2":30.254,"lo1":-89.0895,"lo2":-89.0444,"dy":0.0017,"dx":0.0017,"nx":28,"ny":28,"refTime":"2023-10-15T21:00:00:Z","depth":0,"parameterNumber":2,"parameterNumberName":"U-component_of_WINDS"},"data":[0,0,0,0,0,0,0,0,0,0,0,0,0,0,0,0,0,0,0,0,0,0,0,0,0,0,0,0,0,0,0,0,0,0,0,0,0,0,0,0,0,0,0,0,0,0,0,0,0,0,0,0,0,0,0,0,0,0,0.9438,0.9437,0,0.9397,0.9396,0.9396,0.9393,0.9394,0.9394,0.9395,0.9349,0.9348,0.9346,0,0,0,0,0,0,0,0,0,0,0,0,0,0.9512,0.951,0.9438,0.9437,0.9437,0.9397,0.9396,0.9396,0.9393,0.9394,0.9394,0.9395,0.935,0.9348,0.9346,0,0,0,0,0,0,0,0,0,0,0,0,0,0.9476,0.951,0.9438,0.9431,0.943,0.9397,0.9396,0.9396,0.9393,0.9394,0.9395,0.9395,0.935,0.9348,0.9346,0.9316,0,0,0.9338,0.9337,0,0,0,0,0,0,0,0,0.9478,0.9473,0.9432,0.9431,0.943,0.9401,0.9406,0.9369,0.9393,0.9407,0.9395,0.9396,0.9366,0.9362,0.9353,0.9314,0.9312,0.9338,0.9336,0.9335,0.9334,0,0,0,0,0,0,0,0.948,0.9475,0.9422,0.9432,0.943,0.9429,0.9425,0.9399,0.9383,0.9406,0.9405,0.9401,0.9365,0.9355,0.9351,0.9311,0.9338,0.9336,0.9334,0.9333,0.9247,0.9246,0,0,0,0,0,0,0.9485,0.9477,0.9423,0.942,0.9456,0.9427,0.9422,0.941,0.9383,0.938,0.94,0.9401,0.9359,0.9354,0.935,0.9314,0.9335,0.9333,0.9331,0.9248,0.9247,0.9246,0,0,0,0,0,0,0.9486,0.948,0.9425,0.9449,0.9442,0.9425,0.9411,0.9408,0.9398,0.9379,0.9376,0.9393,0.9359,0.9353,0.9325,0.9312,0.9332,0.933,0.9249,0.9248,0.9246,0.9241,0,0,0,0,0,0,0.9488,0.948,0.9469,0.9448,0.944,0.9401,0.941,0.9407,0.9394,0.9395,0.9371,0.9368,0.9359,0.9329,0.9322,0.9309,0.9328,0.925,0.9248,0.9247,0.9242,0.924,0.9237,0,0,0,0,0,0.9491,0.9469,0.9469,0.9462,0.9426,0.94,0.9395,0.9387,0.9393,0.9382,0.937,0.9369,0.9315,0.9326,0.9319,0.9304,0.9251,0.9249,0.9247,0.9243,0.924,0.9238,0,0,0,0,0,0,0.9487,0.9466,0.9466,0.9436,0.942,0.94,0.9385,0.9384,0.9364,0.9365,0.9355,0.935,0.9321,0.931,0.9323,0.9275,0.9283,0.928,0.9283,0.928,0.9278,0.928,0.9326,0,0,0,0,0,0.9483,0.9464,0.9446,0.9422,0.9414,0.9401,0.9389,0.9384,0.9367,0.9359,0.9345,0.9327,0.9307,0.9293,0.9272,0.9241,0.9236,0.9228,0.9226,0.9224,0.9221,0.9203,0.92,0.924,0.924,0.924,0,0,0.9473,0.9459,0.9448,0.9421,0.9408,0.9388,0.9395,0.9373,0.9358,0.9356,0.9328,0.9317,0.9297,0.9267,0.9253,0.9257,0.9209,0.9222,0.922,0.9218,0.9201,0.9197,0.9194,0.9239,0.9239,0.9239,0,0,0.9446,0.9434,0.9412,0.94,0.9381,0.9373,0.9368,0.9348,0.9341,0.9314,0.9311,0.9293,0.9258,0.9243,0.9231,0.9201,0.9199,0.9195,0.9182,0.9165,0.9162,0.9159,0.9148,0.9144,0.9192,0.9192,0.9192,0,0.9436,0.9407,0.9401,0.938,0.9368,0.9367,0.9344,0.9332,0.9307,0.9298,0.9303,0.9259,0.9246,0.9212,0.9205,0.9196,0.9189,0.9196,0.9163,0.916,0.9157,0.9146,0.9142,0.9191,0.9191,0.9191,0.9191,0,0.9396,0.9376,0.936,0.9338,0.9324,0.9302,0.9293,0.928,0.9277,0.9268,0.924,0.9224,0.9201,0.9193,0.9189,0.9159,0.9162,0.9166,0.9174,0.9153,0.9143,0.9138,0.9191,0.9191,0.9191,0.9191,0,0,0.9362,0.9338,0.9332,0.9322,0.9302,0.9286,0.9265,0.9244,0.9232,0.9216,0.9197,0.9168,0.9172,0.9158,0.9153,0.9139,0.9115,0.9143,0.9143,0.9138,0.9081,0.9078,0.9073,0.9115,0.9114,0.9114,0.9083,0,0.9331,0.9294,0.9289,0.9256,0.9237,0.9237,0.9218,0.9204,0.9196,0.9178,0.9169,0.9148,0.9154,0.9146,0.9132,0.9121,0.9103,0.9123,0.9096,0.9095,0.91,0.9068,0.9064,0.9035,0.9079,0.9078,0.9077,0,0.929,0.9274,0.9239,0.9223,0.9215,0.9198,0.9179,0.9163,0.9146,0.9141,0.9128,0.9125,0.9102,0.9113,0.9082,0.9096,0.9085,0.9078,0.9076,0.9072,0.9084,0.9061,0.9026,0.9021,0.9071,0.9071,0.9072,0,0.9268,0.9238,0.9213,0.9205,0.9185,0.9173,0.9165,0.9149,0.9137,0.912,0.9112,0.9093,0.9081,0.9066,0.9058,0.9067,0.9027,0.9037,0.9022,0.9022,0.9011,0.9012,0.8972,0.9007,0.9007,0.9007,0.9007,0,0.9233,0.9212,0.9203,0.9187,0.9164,0.9158,0.9134,0.9126,0.9113,0.9095,0.9094,0.9078,0.9069,0.9051,0.9045,0.902,0.9015,0.901,0.9008,0.9009,0.9009,0.9,0.9001,0.9006,0.9006,0.9006,0.9007,0,0.9203,0.9197,0.917,0.9155,0.915,0.9133,0.912,0.9105,0.9098,0.9076,0.907,0.9059,0.9038,0.903,0.9003,0.8999,0.897,0.8971,0.8976,0.8975,0.8959,0.896,0.8911,0.8904,0.8945,0.8944,0.8944,0,0.9181,0.9165,0.9148,0.9137,0.9129,0.9111,0.9099,0.9094,0.9081,0.9063,0.905,0.903,0.9013,0.898,0.8968,0.8949,0.8948,0.8932,0.8945,0.8947,0.8946,0.8947,0.8945,0.8929,0.8929,0.8929,0.8928,0,0.9142,0.914,0.9123,0.9106,0.9092,0.9078,0.9064,0.9055,0.9048,0.9034,0.9014,0.9001,0.8976,0.8955,0.8936,0.8926,0.8925,0.8925,0.892,0.892,0.8923,0.892,0.8968,0.8925,0.8926,0.8926,0.8926,0.8926,0.9114,0.91,0.9086,0.9068,0.9058,0.9045,0.9031,0.9023,0.9006,0.8986,0.8984,0.8962,0.8947,0.8921,0.8911,0.8893,0.8897,0.889,0.8888,0.8886,0.8884,0.8928,0.889,0.889,0.889,0.889,0.889,0,0.9074,0.9066,0.9049,0.9031,0.9017,0.902,0.9006,0.8993,0.8974,0.8961,0.8945,0.8922,0.8903,0.8892,0.8872,0.886,0.886,0.8855,0.8855,0.8853,0.8883,0.8888,0.8856,0.8856,0.8856,0.8856,0.8856,0.8856,0.9051,0.9027,0.9024,0.8995,0.8987,0.8966,0.8957,0.8946,0.8935,0.891,0.8895,0.8888,0.8876,0.8856,0.8838,0.8835,0.8828,0.8823,0.882,0.8847,0.8851,0.8854,0.8859,0.8822,0.8821,0.8791,0.8791,0.8791]},{"header":{"parameterUnit":"m.s-1","parameterCategory":1,"la1":30.2991,"la2":30.254,"lo1":-89.0895,"lo2":-89.0444,"dy":0.0017,"dx":0.0017,"nx":28,"ny":28,"refTime":"2023-10-15T21:00:00:Z","depth":0,"parameterNumber":3,"parameterNumberName":"V-component_of_WINDS"},"data":[0,0,0,0,0,0,0,0,0,0,0,0,0,0,0,0,0,0,0,0,0,0,0,0,0,0,0,0,0,0,0,0,0,0,0,0,0,0,0,0,0,0,0,0,0,0,0,0,0,0,0,0,0,0,0,0,0,0,-8.1507,-8.1509,0,-8.1639,-8.1641,-8.1642,-8.1504,-8.1499,-8.1493,-8.1488,-8.1618,-8.1626,-8.1634,0,0,0,0,0,0,0,0,0,0,0,0,0,-8.1129,-8.1137,-8.1507,-8.1509,-8.1511,-8.1639,-8.1641,-8.1643,-8.1505,-8.1498,-8.1492,-8.1486,-8.1615,-8.1625,-8.1635,0,0,0,0,0,0,0,0,0,0,0,0,0,-8.1281,-8.1139,-8.1507,-8.1457,-8.1454,-8.1639,-8.1641,-8.1643,-8.1506,-8.1498,-8.149,-8.1483,-8.1612,-8.1624,-8.1636,-8.1874,0,0,-8.1675,-8.168,0,0,0,0,0,0,0,0,-8.1272,-8.1295,-8.1463,-8.1461,-8.1458,-8.1547,-8.1555,-8.172,-8.1508,-8.1486,-8.1488,-8.1479,-8.16,-8.1613,-8.1655,-8.188,-8.1886,-8.1676,-8.1684,-8.1689,-8.1693,0,0,0,0,0,0,0,-8.1262,-8.1288,-8.1559,-8.1466,-8.1463,-8.1426,-8.1439,-8.1586,-8.1586,-8.1488,-8.1478,-8.1496,-8.1597,-8.1644,-8.1657,-8.1888,-8.1676,-8.1687,-8.1695,-8.1699,-8.2314,-8.2322,0,0,0,0,0,0,-8.1258,-8.128,-8.1555,-8.1563,-8.1344,-8.144,-8.1454,-8.1527,-8.1584,-8.1586,-8.1503,-8.1489,-8.1626,-8.1643,-8.1661,-8.1944,-8.1689,-8.1701,-8.1708,-8.2305,-8.2316,-8.2325,0,0,0,0,0,0,-8.125,-8.1284,-8.155,-8.1419,-8.145,-8.1455,-8.1537,-8.1533,-8.158,-8.1596,-8.1594,-8.155,-8.162,-8.1644,-8.1823,-8.1947,-8.1706,-8.1718,-8.2295,-8.2308,-8.232,-8.2511,0,0,0,0,0,0,-8.124,-8.1282,-8.1374,-8.1422,-8.1458,-8.1711,-8.1545,-8.1542,-8.1603,-8.1586,-8.164,-8.1641,-8.1616,-8.1805,-8.1835,-8.196,-8.1728,-8.2283,-8.2301,-8.2316,-8.2494,-8.2529,-8.256,0,0,0,0,0,-8.1227,-8.1421,-8.1379,-8.1413,-8.1573,-8.1719,-8.1739,-8.1707,-8.1613,-8.1705,-8.1715,-8.164,-8.1928,-8.1824,-8.1857,-8.1987,-8.2276,-8.2296,-8.2315,-8.2479,-8.2523,-8.2559,0,0,0,0,0,0,-8.1384,-8.1426,-8.138,-8.1596,-8.1656,-8.1695,-8.181,-8.1754,-8.1839,-8.182,-8.1775,-8.1788,-8.1979,-8.2,-8.1884,-8.222,-8.2086,-8.2113,-8.22,-8.2241,-8.2273,-8.2264,-8.1738,0,0,0,0,0,-8.1445,-8.1561,-8.159,-8.1778,-8.181,-8.1806,-8.1868,-8.1838,-8.1897,-8.192,-8.1943,-8.2001,-8.2104,-8.2173,-8.2269,-8.2496,-8.2506,-8.2602,-8.2635,-8.2661,-8.2686,-8.2807,-8.285,-8.239,-8.2389,-8.2389,0,0,-8.1569,-8.1607,-8.1683,-8.1811,-8.1853,-8.1973,-8.1827,-8.196,-8.2048,-8.1939,-8.2111,-8.213,-8.2191,-8.2396,-8.2486,-8.2419,-8.2815,-8.2687,-8.2708,-8.2718,-8.2832,-8.2875,-8.2914,-8.2403,-8.2401,-8.2398,0,0,-8.1859,-8.1899,-8.206,-8.2106,-8.2173,-8.2168,-8.2207,-8.2256,-8.2265,-8.2437,-8.2358,-8.246,-8.2639,-8.2687,-8.2734,-8.3042,-8.2976,-8.3074,-8.3246,-8.3364,-8.3401,-8.3433,-8.3543,-8.3583,-8.3098,-8.3098,-8.3099,0,-8.2005,-8.2185,-8.2149,-8.2289,-8.2347,-8.2256,-8.2418,-8.2463,-8.2557,-8.2599,-8.2523,-8.2746,-8.2781,-8.2995,-8.307,-8.3112,-8.3153,-8.3068,-8.3399,-8.343,-8.346,-8.3564,-8.3606,-8.311,-8.3108,-8.3107,-8.3106,0,-8.2362,-8.2488,-8.261,-8.2706,-8.2777,-8.2927,-8.2912,-8.2989,-8.2953,-8.2956,-8.3131,-8.317,-8.3272,-8.332,-8.3286,-8.353,-8.3487,-8.3406,-8.327,-8.3516,-8.3613,-8.3653,-8.3126,-8.3122,-8.3119,-8.3116,0,0,-8.2755,-8.2829,-8.2875,-8.2917,-8.2984,-8.308,-8.3224,-8.3327,-8.3393,-8.3461,-8.3581,-8.3735,-8.3661,-8.3714,-8.3684,-8.3789,-8.403,-8.3694,-8.3695,-8.3756,-8.4301,-8.4362,-8.4409,-8.3986,-8.3994,-8.4,-8.4296,0,-8.3046,-8.3301,-8.3273,-8.3515,-8.3631,-8.3546,-8.3672,-8.3725,-8.3732,-8.3829,-8.3834,-8.3945,-8.3839,-8.3871,-8.397,-8.398,-8.4139,-8.3958,-8.4096,-8.4102,-8.4085,-8.446,-8.4525,-8.4803,-8.4334,-8.434,-8.4345,0,-8.3421,-8.3505,-8.3759,-8.3809,-8.3856,-8.397,-8.4062,-8.4156,-8.4215,-8.4212,-8.4273,-8.4225,-8.4368,-8.4229,-8.4426,-8.4304,-8.4358,-8.4372,-8.4381,-8.4394,-8.4239,-8.4483,-8.4891,-8.4933,-8.4404,-8.44,-8.4395,0,-8.3683,-8.3858,-8.4034,-8.4072,-8.4134,-8.4217,-8.4246,-8.4296,-8.436,-8.4439,-8.4479,-8.4573,-8.4625,-8.4698,-8.4676,-8.4577,-8.4878,-8.4737,-8.4878,-8.488,-8.4946,-8.4943,-8.537,-8.4981,-8.498,-8.4979,-8.4978,0,-8.4012,-8.4171,-8.4152,-8.426,-8.4436,-8.4401,-8.4574,-8.4592,-8.4638,-8.4747,-8.4677,-8.478,-8.4744,-8.4844,-8.4827,-8.4993,-8.5016,-8.5017,-8.5011,-8.5024,-8.5024,-8.506,-8.504,-8.499,-8.4988,-8.4986,-8.4984,0,-8.4335,-8.4329,-8.4514,-8.4558,-8.4573,-8.47,-8.4736,-8.4837,-8.4838,-8.4976,-8.5006,-8.5007,-8.5122,-8.5106,-8.5233,-8.5221,-8.5428,-8.5398,-8.541,-8.5403,-8.5546,-8.5533,-8.6011,-8.6072,-8.5644,-8.5648,-8.5651,0,-8.4546,-8.4667,-8.4724,-8.4793,-8.4829,-8.494,-8.5005,-8.4975,-8.5045,-8.5121,-8.5212,-8.532,-8.5406,-8.5592,-8.5603,-8.5699,-8.5671,-8.5832,-8.5685,-8.5695,-8.5674,-8.5668,-8.568,-8.5861,-8.5866,-8.587,-8.5873,0,-8.4921,-8.4912,-8.501,-8.5108,-8.5188,-8.5262,-8.5329,-8.5388,-8.5364,-8.5446,-8.5563,-8.563,-8.576,-8.5869,-8.5959,-8.5986,-8.5927,-8.592,-8.5958,-8.5973,-8.5975,-8.5977,-8.549,-8.5909,-8.5905,-8.5903,-8.5901,-8.5899,-8.5195,-8.5299,-8.5356,-8.5467,-8.5514,-8.5579,-8.5676,-8.569,-8.5788,-8.5894,-8.5868,-8.6001,-8.6055,-8.6171,-8.6208,-8.631,-8.6251,-8.6306,-8.632,-8.6334,-8.6352,-8.5959,-8.6326,-8.6325,-8.6324,-8.6323,-8.6323,0,-8.5567,-8.56,-8.5703,-8.58,-8.5887,-8.5825,-8.5895,-8.5972,-8.6091,-8.6147,-8.6233,-8.6368,-8.6473,-8.6492,-8.6591,-8.6669,-8.6644,-8.6696,-8.669,-8.6698,-8.6399,-8.6356,-8.6715,-8.6715,-8.6715,-8.6715,-8.6715,-8.6715,-8.5772,-8.5944,-8.5942,-8.6137,-8.6167,-8.6299,-8.6345,-8.6403,-8.6448,-8.6603,-8.6691,-8.6703,-8.6745,-8.6846,-8.6939,-8.6942,-8.6982,-8.7045,-8.7038,-8.6758,-8.6719,-8.6681,-8.6641,-8.7054,-8.7055,-8.7328,-8.7331,-8.7333]}]]